EW3246 Weather Reports


Display with metric or nautical units.
time (UTC)temp
F
wind
direction
speed
MPH
gust
MPH
rain 1hr
in
rain 24hr
in
rain mn
in
humidity
%
barometer
mb
20260508081038 42 187 0.0 1.0 0.00 0.13 0.00 96 1012.6
20260508080520 42 187 0.0 1.0 0.00 0.14 0.00 96 1012.4
20260508080013 42 187 0.0 0.0 0.00 0.14 0.00 96 1012.5
20260508075602 43 187 0.0 0.0 0.00 0.14 0.00 96 1012.4
20260508075048 43 187 0.0 0.0 0.00 0.14 0.00 96 1012.4
20260508074616 43 187 0.0 0.0 0.00 0.14 0.00 96 1012.5
20260508074046 43 187 0.0 0.0 0.00 0.14 0.00 96 1012.5
20260508073539 43 187 0.0 0.0 0.00 0.14 0.00 96 1012.5
20260508073102 43 187 0.0 0.0 0.00 0.14 0.00 96 1012.4
20260508072550 43 187 0.0 0.0 0.00 0.14 0.00 96 1012.4
20260508072038 43 187 0.0 0.0 0.00 0.14 0.00 96 1012.5
20260508071553 43 187 0.0 0.0 0.00 0.14 0.00 96 1012.4
20260508071034 43 187 0.0 0.0 0.00 0.14 0.00 96 1012.3
20260508070523 43 187 0.0 0.0 0.00 0.14 0.00 96 1012.2
20260508070042 43 187 0.0 0.0 0.00 0.14 0.00 96 1012.3
20260508065528 43 187 0.0 0.0 0.00 0.14 0.00 96 1012.2
20260508065010 43 187 0.0 0.0 0.00 0.14 0.00 96 1012.3
20260508064544 44 187 0.0 0.0 0.00 0.14 0.00 96 1012.2
20260508064021 44 187 0.0 0.0 0.00 0.14 0.00 96 1012.2
20260508063601 44 187 0.0 0.0 0.00 0.14 0.00 96 1012.1
20260508063057 44 187 0.0 0.0 0.00 0.14 0.00 95 1012.1
20260508062542 44 187 0.0 0.0 0.00 0.14 0.00 95 1012.2
20260508062013 44 187 0.0 0.0 0.00 0.14 0.00 95 1012.2
20260508061534 45 187 0.0 3.0 0.00 0.14 0.00 96 1012.2
20260508061005 45 187 0.0 4.0 0.00 0.14 0.00 96 1012.2
20260508060550 45 187 1.0 4.0 0.00 0.14 0.00 95 1012.2
20260508060100 45 187 0.0 2.0 0.00 0.14 0.00 96 1012.3
20260508055544 45 187 0.0 4.0 0.00 0.14 0.00 95 1012.3
20260508055032 45 187 0.0 4.0 0.00 0.14 0.00 95 1012.3
20260508054502 45 187 1.0 4.0 0.00 0.14 0.00 95 1012.3
20260508054050 45 187 0.0 2.0 0.00 0.14 0.00 95 1012.1
20260508053534 45 187 0.0 0.0 0.00 0.14 0.00 95 1012.1
20260508053010 45 187 0.0 1.0 0.00 0.14 0.00 95 1012.2
20260508052546 46 187 0.0 0.0 0.00 0.14 0.00 95 1012.1
20260508052029 46 187 0.0 0.0 0.00 0.14 0.00 95 1012.1
20260508051539 46 187 0.0 2.0 0.00 0.14 0.00 95 1012.1
20260508051018 46 187 0.0 2.0 0.00 0.14 0.00 95 1012.0
20260508050556 46 187 0.0 2.0 0.00 0.14 0.00 95 1011.9
20260508050059 46 187 0.0 1.0 0.00 0.14 0.00 95 1011.9
20260508045528 46 187 0.0 0.0 0.00 0.14 0.00 94 1011.9
20260508045006 46 187 0.0 0.0 0.00 0.14 0.00 95 1011.7
20260508044524 47 187 0.0 0.0 0.00 0.14 0.00 95 1011.6
20260508044013 47 187 0.0 0.0 0.00 0.14 0.00 95 1011.3
20260508043556 47 187 0.0 0.0 0.00 0.14 0.00 94 1011.3
20260508043017 47 187 0.0 0.0 0.00 0.14 0.00 94 1011.3
20260508042556 47 187 0.0 0.0 0.00 0.14 0.00 94 1011.2
20260508042038 47 187 0.0 0.0 0.00 0.14 0.00 94 1011.3
20260508041555 47 187 0.0 0.0 0.00 0.14 0.00 94 1011.2
20260508041032 48 187 0.0 0.0 0.00 0.14 0.00 94 1011.3
20260508040505 48 187 0.0 0.0 0.00 0.18 0.00 94 1011.3
20260508040044 48 187 0.0 0.0 0.00 0.18 0.00 94 1011.2
20260508035604 48 187 0.0 0.0 0.00 0.18 0.00 94 1011.1
20260508035048 48 187 0.0 1.0 0.00 0.18 0.00 94 1011.1
20260508034559 48 187 0.0 1.0 0.00 0.18 0.00 93 1011.1
20260508034041 48 187 0.0 1.0 0.00 0.18 0.00 93 1011.0
20260508033522 48 187 0.0 0.0 0.00 0.18 0.00 93 1010.9
20260508033028 48 187 0.0 0.0 0.00 0.18 0.00 92 1010.9
20260508032504 49 187 0.0 0.0 0.00 0.18 0.00 92 1010.8
20260508032050 49 187 0.0 0.0 0.00 0.18 0.00 92 1010.6
20260508031602 49 187 0.0 2.0 0.00 0.18 0.00 92 1010.6
20260508031044 50 187 0.0 2.0 0.00 0.18 0.00 92 1010.6
20260508030531 50 187 0.0 0.0 0.00 0.22 0.18 92 1010.6
20260508030054 50 187 0.0 0.0 0.00 0.22 0.18 92 1010.6
20260508025543 50 187 0.0 0.0 0.00 0.22 0.18 92 1010.6
20260508025032 50 187 0.0 0.0 0.00 0.22 0.18 91 1010.7
20260508024545 50 187 0.0 0.0 0.00 0.22 0.18 91 1010.6
20260508024038 50 187 0.0 2.0 0.00 0.22 0.18 90 1010.4
20260508023530 50 187 0.0 2.0 0.00 0.22 0.18 90 1010.3
20260508023039 51 187 0.0 2.0 0.00 0.22 0.18 89 1010.3
20260508022509 52 187 0.0 2.0 0.00 0.22 0.18 88 1010.4
20260508022057 52 187 0.0 2.0 0.00 0.22 0.18 87 1010.2
20260508021603 52 187 0.0 1.0 0.00 0.22 0.18 84 1010.1
20260508021040 53 187 0.0 0.0 0.00 0.22 0.18 81 1010.0
20260508020527 53 187 0.0 0.0 0.00 0.22 0.18 82 1010.0
20260508020039 53 187 0.0 0.0 0.00 0.22 0.18 80 1009.8
20260508015522 53 187 0.0 0.0 0.00 0.22 0.18 80 1009.8
20260508015101 53 187 0.0 0.0 0.00 0.22 0.18 80 1009.8
20260508014509 54 187 0.0 0.0 0.00 0.22 0.18 80 1009.6
20260508014054 54 187 0.0 0.0 0.00 0.22 0.18 80 1009.5
20260508013538 54 187 0.0 0.0 0.00 0.22 0.18 79 1009.3
20260508013032 54 187 0.0 0.0 0.00 0.22 0.18 79 1009.2
20260508012510 54 187 0.0 0.0 0.00 0.22 0.18 81 1009.0
20260508012058 54 187 0.0 1.0 0.00 0.22 0.18 80 1008.9
20260508011514 54 187 0.0 2.0 0.00 0.22 0.18 83 1008.8
20260508011104 54 187 0.0 2.0 0.00 0.22 0.18 80 1008.8
20260508010547 55 187 0.0 1.0 0.00 0.22 0.18 81 1008.8
20260508010055 55 187 0.0 2.0 0.00 0.22 0.18 80 1008.7
20260508005537 55 187 0.0 2.0 0.00 0.22 0.18 80 1008.6
20260508005025 55 187 0.0 2.0 0.00 0.22 0.18 80 1008.6
20260508004534 55 187 0.0 0.0 0.00 0.22 0.18 81 1008.6
20260508004007 56 187 0.0 2.0 0.00 0.22 0.18 80 1008.6
20260508003554 56 187 0.0 2.0 0.00 0.22 0.18 81 1008.5
20260508003103 56 187 0.0 3.0 0.00 0.22 0.18 81 1008.5
20260508002549 56 187 1.0 3.0 0.00 0.22 0.18 83 1008.5
20260508002025 57 187 0.0 3.0 0.00 0.22 0.18 84 1008.6
20260508001541 57 187 0.0 5.0 0.00 0.22 0.18 85 1008.7
20260508001024 58 187 1.0 6.0 0.00 0.22 0.18 84 1008.6
20260508000605 59 187 0.0 5.0 0.00 0.22 0.18 84 1008.3
20260508000006 59 189 0.0 7.0 0.00 0.22 0.18 81 1008.4
20260507235554 59 190 0.0 7.0 0.00 0.22 0.18 82 1008.3
20260507235042 59 192 2.0 6.0 0.00 0.22 0.18 83 1008.3
20260507234522 59 193 2.0 6.0 0.00 0.22 0.18 87 1008.2
20260507234058 59 197 1.0 9.0 0.00 0.22 0.18 90 1008.1
20260507233542 58 205 2.0 9.0 0.00 0.22 0.18 92 1008.0
20260507233110 59 255 1.0 7.0 0.00 0.22 0.18 93 1007.9
20260507232531 59 255 0.0 0.0 0.00 0.22 0.18 93 1008.0
20260507232016 59 255 0.0 1.0 0.00 0.22 0.18 93 1007.8
20260507231507 59 255 0.0 2.0 0.00 0.22 0.18 93 1007.8
20260507231054 59 255 0.0 1.0 0.00 0.22 0.18 93 1007.8
20260507230535 59 255 0.0 0.0 0.00 0.22 0.18 92 1007.8
20260507230049 59 255 0.0 0.0 0.00 0.22 0.18 92 1007.8
20260507225531 59 255 0.0 0.0 0.00 0.22 0.18 92 1007.8
20260507225007 59 255 0.0 0.0 0.00 0.22 0.18 92 1007.8
20260507224553 60 255 0.0 0.0 0.00 0.22 0.18 92 1007.8
20260507224038 60 255 0.0 0.0 0.00 0.22 0.18 92 1007.7
20260507223509 60 255 0.0 1.0 0.00 0.22 0.18 91 1007.6
20260507223116 60 255 0.0 1.0 0.00 0.22 0.18 91 1007.4
20260507222544 60 255 0.0 2.0 0.00 0.22 0.18 91 1007.3
20260507222025 60 255 0.0 2.0 0.00 0.22 0.18 92 1007.2
20260507221541 60 255 0.0 2.0 0.00 0.22 0.18 93 1007.1
20260507221014 60 255 0.0 5.0 0.00 0.22 0.18 93 1007.1
20260507220502 59 255 1.0 7.0 0.00 0.22 0.18 92 1007.0
20260507220033 60 255 2.0 7.0 0.00 0.22 0.18 91 1007.1
20260507215502 60 255 2.0 7.0 0.00 0.22 0.18 91 1007.1
20260507215049 60 255 0.0 5.0 0.00 0.22 0.18 91 1007.1
20260507214604 61 255 0.0 7.0 0.00 0.22 0.18 90 1007.1
20260507214050 61 255 2.0 5.0 0.00 0.22 0.18 91 1007.0
20260507213531 61 255 0.0 3.0 0.00 0.22 0.18 91 1007.0
20260507213046 60 255 0.0 7.0 0.00 0.22 0.18 91 1007.0
20260507212526 60 255 2.0 10.0 0.00 0.22 0.18 90 1006.8
20260507212020 60 255 4.0 10.0 0.00 0.22 0.18 89 1006.8
20260507211547 61 255 3.0 8.0 0.00 0.22 0.18 92 1006.9
20260507211024 60 255 1.0 12.0 0.00 0.22 0.18 90 1006.8
20260507210502 60 256 4.0 9.0 0.00 0.22 0.18 92 1006.6
20260507210021 60 261 1.0 14.0 0.00 0.22 0.18 94 1006.6
20260507205515 59 261 6.0 14.0 0.00 0.22 0.18 94 1006.5
20260507205052 59 286 0.0 7.0 0.00 0.22 0.18 96 1006.7
20260507204601 58 286 0.0 7.0 0.00 0.22 0.18 95 1006.6
20260507204055 58 286 2.0 7.0 0.00 0.22 0.18 95 1006.7
20260507203537 57 286 0.0 6.0 0.00 0.22 0.18 95 1006.8
20260507203051 57 286 2.0 7.0 0.00 0.22 0.18 95 1006.8
20260507202536 57 286 1.0 7.0 0.00 0.22 0.18 95 1006.8
20260507202014 57 286 0.0 0.0 0.00 0.22 0.18 95 1007.1
20260507201538 57 286 0.0 0.0 0.01 0.22 0.18 95 1007.0
20260507201017 57 286 0.0 0.0 0.02 0.22 0.18 95 1006.9
20260507200504 57 286 0.0 0.0 0.02 0.22 0.18 95 1007.0
20260507200019 57 286 0.0 3.0 0.02 0.22 0.18 95 1007.0
20260507195502 57 286 0.0 3.0 0.02 0.22 0.18 95 1007.1
20260507195053 57 286 0.0 2.0 0.02 0.22 0.18 95 1007.1
20260507194518 57 286 0.0 2.0 0.02 0.22 0.18 95 1007.3
20260507194100 57 286 0.0 1.0 0.02 0.22 0.18 95 1007.2
20260507193552 57 286 0.0 2.0 0.02 0.22 0.18 95 1007.5
20260507193003 58 286 0.0 1.0 0.02 0.22 0.18 95 1007.4
20260507192554 58 286 0.0 3.0 0.02 0.22 0.18 95 1007.3
20260507192040 58 286 0.0 3.0 0.02 0.22 0.18 95 1007.3
20260507191518 58 286 0.0 2.0 0.00 0.20 0.17 95 1007.4
20260507191101 58 286 0.0 3.0 0.00 0.20 0.16 95 1007.0
20260507190543 58 286 1.0 3.0 0.00 0.20 0.16 95 1007.2
20260507190057 58 286 0.0 6.0 0.01 0.20 0.16 95 1007.2
20260507185511 58 286 1.0 6.0 0.05 0.20 0.16 96 1007.2
20260507185052 58 287 0.0 4.0 0.06 0.20 0.16 95 1007.3
20260507184604 58 287 0.0 5.0 0.06 0.20 0.16 96 1007.1
20260507184047 58 288 0.0 5.0 0.06 0.20 0.16 96 1007.3
20260507183532 58 288 1.0 4.0 0.06 0.20 0.16 95 1007.3
20260507183109 57 288 0.0 4.0 0.06 0.20 0.16 95 1007.3
20260507182525 58 288 0.0 4.0 0.07 0.20 0.16 95 1007.4
20260507182008 58 288 1.0 8.0 0.07 0.20 0.16 95 1007.3
20260507181526 58 288 0.0 3.0 0.07 0.20 0.16 95 1007.3
20260507181102 58 288 0.0 8.0 0.07 0.20 0.16 96 1007.2
20260507180555 58 288 2.0 8.0 0.07 0.22 0.16 95 1007.0
20260507180002 58 288 2.0 8.0 0.06 0.20 0.15 95 1007.1
20260507175550 58 289 0.0 4.0 0.03 0.17 0.12 95 1007.4
20260507175033 58 289 0.0 7.0 0.02 0.16 0.10 95 1007.4
20260507174529 58 289 1.0 7.0 0.02 0.16 0.10 95 1007.2
20260507174101 58 289 0.0 9.0 0.02 0.16 0.10 95 1007.2
20260507173542 58 289 4.0 9.0 0.02 0.16 0.10 95 1007.1
20260507173105 59 290 1.0 3.0 0.02 0.16 0.10 95 1007.2
20260507172536 59 290 0.0 10.0 0.01 0.15 0.09 95 1007.1
20260507172025 59 290 5.0 11.0 0.01 0.15 0.09 94 1007.2
20260507171532 59 294 4.0 12.0 0.02 0.15 0.09 94 1007.1
20260507171002 59 302 5.0 12.0 0.02 0.15 0.09 94 1007.2
20260507170554 60 320 1.0 10.0 0.02 0.15 0.09 94 1007.2
20260507170103 60 322 4.0 9.0 0.01 0.14 0.09 94 1007.1
20260507165552 60 334 0.0 3.0 0.01 0.14 0.08 94 1007.1
20260507165039 60 334 0.0 3.0 0.01 0.14 0.08 94 1006.8
20260507164558 60 334 0.0 2.0 0.01 0.14 0.08 93 1006.6
20260507164027 61 334 0.0 3.0 0.01 0.14 0.08 93 1006.6
20260507163603 61 334 1.0 3.0 0.01 0.14 0.08 93 1006.7
20260507163024 61 334 1.0 3.0 0.01 0.14 0.08 92 1006.8
20260507162602 61 334 1.0 3.0 0.01 0.14 0.08 92 1006.9
20260507162049 62 334 0.0 6.0 0.01 0.14 0.08 92 1007.0
20260507161600 61 334 1.0 6.0 0.00 0.13 0.07 92 1007.0
20260507161039 61 334 0.0 5.0 0.00 0.13 0.07 92 1007.1
20260507160522 61 334 0.0 5.0 0.00 0.14 0.07 92 1007.1
20260507160014 61 334 0.0 9.0 0.00 0.14 0.07 92 1007.1
20260507155602 61 334 0.0 8.0 0.00 0.14 0.07 91 1007.1
20260507155048 61 337 2.0 8.0 0.00 0.14 0.07 91 1006.9
20260507154532 61 338 2.0 8.0 0.00 0.14 0.07 92 1006.8
20260507154008 61 340 0.0 8.0 0.00 0.14 0.07 93 1006.7
20260507153554 61 340 1.0 8.0 0.00 0.14 0.07 93 1006.8
20260507153016 61 340 1.0 5.0 0.00 0.14 0.07 94 1006.9
20260507152554 61 340 0.0 8.0 0.00 0.14 0.07 95 1006.9
20260507152039 61 342 1.0 8.0 0.00 0.14 0.07 96 1007.0
20260507151547 61 345 2.0 8.0 0.00 0.14 0.07 96 1006.9
20260507151030 61 350 3.0 8.0 0.00 0.14 0.07 96 1006.9
20260507150504 61 355 0.0 3.0 0.00 0.14 0.07 96 1007.0
20260507150018 61 355 0.0 3.0 0.00 0.14 0.07 96 1007.0
20260507145507 61 355 1.0 3.0 0.00 0.14 0.07 96 1007.0
20260507145054 61 355 0.0 2.0 0.00 0.14 0.07 96 1007.1
20260507144537 61 355 0.0 8.0 0.00 0.14 0.07 96 1007.1
20260507144005 61 355 2.0 8.0 0.00 0.14 0.07 96 1007.0
20260507143552 61 359 0.0 6.0 0.00 0.14 0.07 96 1006.8
20260507143045 61 359 1.0 6.0 0.00 0.14 0.07 97 1006.8
20260507142516 61 359 0.0 4.0 0.00 0.14 0.07 97 1006.6
20260507142102 61 359 0.0 0.0 0.00 0.14 0.07 97 1006.7
20260507141521 61 359 0.0 0.0 0.00 0.14 0.07 97 1006.6
20260507141056 61 359 0.0 4.0 0.00 0.14 0.07 97 1006.6
20260507140539 61 359 0.0 6.0 0.00 0.14 0.07 97 1006.4
20260507140046 61 359 2.0 10.0 0.00 0.14 0.07 97 1006.3
20260507135528 61 4 2.0 10.0 0.00 0.14 0.07 97 1006.3
20260507135007 62 31 1.0 9.0 0.00 0.14 0.07 97 1006.5
20260507134522 62 36 4.0 9.0 0.00 0.14 0.07 97 1006.4
20260507134103 63 45 0.0 6.0 0.00 0.14 0.07 97 1006.3
20260507133548 63 47 2.0 10.0 0.00 0.14 0.07 98 1006.3
20260507133107 63 47 2.0 10.0 0.00 0.14 0.07 98 1006.5
20260507132548 63 71 1.0 4.0 0.00 0.14 0.07 98 1006.5
20260507132036 63 71 0.0 1.0 0.00 0.14 0.07 98 1006.8
20260507131526 63 71 0.0 1.0 0.00 0.14 0.07 98 1006.5
20260507131013 64 71 0.0 0.0 0.00 0.14 0.07 98 1007.0
20260507130600 63 71 0.0 0.0 0.00 0.14 0.07 98 1007.2
20260507130050 63 71 0.0 3.0 0.00 0.14 0.07 98 1007.2
20260507125534 63 71 0.0 4.0 0.00 0.14 0.07 98 1007.3
20260507125016 63 71 1.0 4.0 0.00 0.14 0.07 98 1007.0
20260507124545 63 71 0.0 1.0 0.00 0.14 0.07 98 1007.3
20260507124027 63 71 0.0 0.0 0.00 0.14 0.07 98 1007.4
20260507123522 63 71 0.0 0.0 0.00 0.14 0.07 98 1007.9
20260507123035 63 71 0.0 0.0 0.00 0.14 0.07 98 1007.8
20260507122534 63 71 0.0 0.0 0.00 0.14 0.07 98 1007.8
20260507122106 63 71 0.0 0.0 0.01 0.14 0.07 98 1007.9
20260507121513 63 71 0.0 0.0 0.01 0.14 0.07 98 1008.0
20260507121058 63 71 0.0 0.0 0.01 0.14 0.07 98 1007.7
20260507120546 63 71 0.0 0.0 0.01 0.14 0.07 98 1007.4
20260507120059 63 71 0.0 0.0 0.01 0.14 0.07 98 1007.1
20260507115546 63 71 0.0 0.0 0.01 0.14 0.07 98 1007.2
20260507115039 63 71 0.0 0.0 0.01 0.14 0.07 98 1006.9
20260507114607 62 71 0.0 0.0 0.01 0.14 0.07 98 1007.1
20260507114040 62 71 0.0 0.0 0.01 0.14 0.07 98 1007.3
20260507113529 62 71 0.0 0.0 0.01 0.14 0.07 98 1007.2
20260507113102 62 71 0.0 0.0 0.01 0.14 0.07 98 1006.9
20260507112525 62 71 0.0 0.0 0.01 0.14 0.07 98 1006.9
20260507112019 62 71 0.0 0.0 0.00 0.13 0.06 98 1006.9
20260507111539 62 71 0.0 0.0 0.00 0.13 0.06 98 1006.8
20260507111012 62 71 0.0 0.0 0.00 0.13 0.06 98 1006.8
20260507110558 62 71 0.0 0.0 0.00 0.13 0.06 97 1006.8
20260507110018 62 71 0.0 0.0 0.00 0.13 0.06 97 1006.9
20260507105606 62 71 0.0 0.0 0.00 0.13 0.06 97 1006.9
20260507105051 62 71 0.0 0.0 0.00 0.13 0.06 97 1006.7
20260507104557 62 71 0.0 0.0 0.00 0.13 0.06 97 1006.7
20260507104042 62 71 0.0 0.0 0.00 0.13 0.06 97 1006.4
20260507103524 62 71 0.0 0.0 0.00 0.13 0.06 97 1007.2
20260507103041 62 71 0.0 0.0 0.00 0.13 0.06 97 1006.9
20260507102521 62 71 0.0 0.0 0.00 0.13 0.06 97 1006.8
20260507102101 62 71 0.0 0.0 0.00 0.13 0.06 97 1006.8
20260507101524 62 71 0.0 0.0 0.00 0.13 0.06 97 1006.6
20260507101100 62 71 0.0 2.0 0.00 0.13 0.06 97 1006.5
20260507100547 62 71 0.0 2.0 0.01 0.13 0.06 97 1006.5
20260507100044 62 71 0.0 0.0 0.01 0.13 0.06 97 1006.5
20260507095535 62 71 0.0 0.0 0.01 0.13 0.06 97 1006.3
20260507095025 62 71 0.0 4.0 0.01 0.13 0.06 97 1006.3
20260507094542 62 71 0.0 4.0 0.01 0.13 0.06 97 1006.3
20260507094030 62 71 2.0 3.0 0.01 0.13 0.06 97 1006.3
20260507093520 62 71 0.0 0.0 0.01 0.13 0.06 97 1006.1
20260507093004 62 71 0.0 0.0 0.01 0.13 0.06 97 1006.1
20260507092556 62 71 0.0 1.0 0.01 0.13 0.06 97 1005.9
20260507092046 63 71 0.0 3.0 0.01 0.13 0.06 97 1006.0
20260507091537 63 71 0.0 3.0 0.01 0.13 0.06 97 1006.2
20260507091018 63 71 0.0 4.0 0.01 0.13 0.06 97 1006.3
20260507090507 63 71 1.0 4.0 0.00 0.12 0.05 97 1006.7
20260507090038 63 71 1.0 4.0 0.00 0.12 0.05 97 1006.9
20260507085521 63 71 0.0 3.0 0.00 0.12 0.05 97 1006.8
20260507085100 63 71 0.0 1.0 0.00 0.12 0.05 97 1006.8
20260507084507 63 71 0.0 3.0 0.01 0.12 0.05 97 1006.8
20260507084056 63 71 0.0 3.0 0.01 0.12 0.05 97 1006.8
20260507083538 63 71 0.0 3.0 0.01 0.12 0.05 97 1006.9
20260507083047 63 71 1.0 3.0 0.01 0.12 0.05 97 1006.9
20260507082531 63 71 0.0 2.0 0.01 0.12 0.05 97 1006.9
20260507082007 63 71 0.0 0.0 0.01 0.12 0.05 97 1006.8
20260507081600 63 71 0.0 2.0 0.01 0.12 0.05 97 1006.8